CAPE
nan nan nan nan nan nan nan nan nan nan nan nan nan nan nan nan nan nan 1 nan nan nan nan nan nan nan 1 64 104 104 129 144 152 152 158 171 185 185 189 198 198 219 241 269 269 289 299 324 324 344 360 379 406 406 444 507 507 522 526 506 506 550 543 522 522 503 453 385 393 393 431 435 419 419 377 347 357 357 404 393 393 290 228 188 188 187
nan nan nan nan nan nan nan nan nan nan nan nan nan nan nan nan nan nan nan nan nan nan nan nan nan nan nan 22 97 97 123 142 147 147 163 173 183 183 188 200 200 218 249 274 274 294 304 313 313 340 372 393 401 401 428 452 452 472 466 462 462 485 449 414 414 391 369 339 324 324 364 426 406 406 369 368 391 391 374 314 314 227 183 170 170 175
nan nan nan nan nan nan nan nan nan nan nan nan nan nan nan nan nan nan nan nan nan nan nan nan nan nan nan 11 100 100 121 140 148 148 164 178 189 189 197 217 217 232 252 287 287 308 324 340 340 353 383 380 379 379 374 382 382 385 372 377 377 358 340 310 310 295 320 313 291 291 340 382 358 358 374 389 371 371 300 231 231 180 160 165 165 178
nan nan nan nan nan nan nan nan nan nan nan nan nan nan nan nan nan nan nan nan nan nan nan nan nan nan nan 1 68 68 119 137 154 154 167 183 199 199 216 237 237 253 279 307 307 338 364 358 358 353 361 339 329 329 323 316 316 304 307 296 296 285 259 245 245 253 260 264 293 293 323 330 338 338 369 360 298 298 230 197 197 167 168 172 172 187
nan nan nan nan nan nan nan nan nan nan nan nan nan nan nan nan nan nan nan nan nan nan nan nan nan nan nan nan 32 32 111 142 156 156 174 193 220 220 238 261 261 285 312 343 343 378 389 368 368 347 332 314 294 294 310 290 290 286 286 264 264 253 240 240 240 242 224 236 272 272 315 291 307 307 315 282 244 244 216 201 201 185 172 172 172 178
nan nan nan nan nan nan nan nan nan nan nan nan nan nan nan nan nan nan nan nan nan nan nan nan nan nan nan nan 29 29 111 143 155 155 176 205 236 236 260 276 276 293 319 339 339 368 378 349 349 325 306 296 315 315 311 315 315 293 278 251 251 257 245 244 244 223 201 219 275 275 285 270 270 270 266 238 210 210 205 194 194 196 185 184 184 193
nan nan nan nan nan nan nan nan 0 0 nan nan nan nan nan nan nan nan nan nan nan nan nan nan nan nan nan nan 54 54 113 136 158 158 173 198 239 239 264 276 276 284 301 327 327 333 327 310 310 306 307 316 321 321 320 320 320 276 255 229 229 228 243 231 231 199 177 209 250 250 250 236 235 235 227 208 189 189 182 177 177 182 175 191 191 219
nan nan nan nan nan nan nan nan nan nan nan nan nan nan nan nan nan nan nan nan nan nan nan nan nan nan nan nan 0 0 0 0 4 4 48 85 144 144 183 223 223 252 270 285 285 293 304 305 305 305 291 275 259 259 247 246 246 217 196 159 159 167 167 165 165 150 155 197 204 204 177 165 163 163 164 155 153 153 152 154 154 158 173 194 194 218
nan nan nan nan nan nan nan nan nan nan 0 nan nan nan nan nan nan nan nan nan nan nan nan nan nan nan nan nan 3 3 35 47 20 20 27 9 13 13 98 168 168 219 271 292 292 300 311 295 295 277 254 231 214 214 213 205 205 196 167 148 148 141 139 142 142 135 152 193 180 180 155 150 157 157 144 138 140 140 139 138 138 143 159 180 180 211
nan nan nan nan nan nan nan nan nan nan 0 nan nan nan nan nan nan nan nan nan nan nan 1 2 2 5 3 1 2 2 13 46 122 122 157 104 153 153 131 136 136 149 245 269 269 281 269 242 242 225 211 200 189 189 183 169 169 157 133 122 122 117 123 126 126 132 164 185 158 158 131 134 135 135 126 126 128 128 127 131 131 138 150 162 162 184
0 0 nan 0 0 2 2 1 1 1 1 0 nan nan nan nan nan nan nan nan nan 4 6 7 7 3 3 0 1 1 4 nan 7 7 49 88 125 125 148 154 154 184 206 202 202 204 193 182 182 170 169 169 164 164 146 136 136 124 112 104 104 109 110 116 116 129 158 161 132 132 117 113 113 113 108 116 120 120 122 128 128 135 144 150 150 160
1 1 2 8 8 13 7 5 3 3 1 nan nan nan nan nan nan nan nan 0 0 0 2 2 2 2 1 1 3 3 0 nan 0 0 nan 7 30 30 45 47 47 76 94 105 105 112 127 133 133 129 124 121 136 136 125 100 100 108 98 96 96 104 108 116 116 124 144 131 109 109 95 93 98 98 102 112 121 121 123 136 136 144 139 138 138 141
2 1 6 11 11 9 3 1 0 0 1 2 2 2 3 4 0 0 0 nan nan 1 2 2 2 3 2 0 1 1 0 nan 0 0 1 0 2 2 3 6 6 5 5 7 7 6 52 85 85 100 109 99 113 113 115 99 99 92 89 89 89 102 113 129 129 132 138 112 93 93 85 84 87 87 101 120 121 121 129 147 147 155 138 131 131 131
0 8 11 7 7 2 0 0 5 5 12 11 4 4 1 0 nan nan nan 1 1 2 2 2 2 1 1 2 2 2 0 0 0 0 1 0 nan nan 1 5 5 6 3 nan nan nan 25 36 36 24 74 74 79 79 76 85 85 88 84 88 88 103 123 137 137 146 136 111 92 92 79 81 91 91 105 118 129 129 137 155 155 154 138 128 128 123
1 9 9 4 4 1 2 2 10 10 14 6 0 0 nan nan nan nan nan 0 0 2 4 4 4 0 1 1 nan nan nan nan nan nan nan nan nan nan 0 2 2 3 4 1 1 nan 20 14 14 1 9 23 27 27 48 57 57 87 83 95 95 112 130 152 152 157 134 112 95 95 86 87 103 103 109 118 121 121 134 149 149 150 139 128 128 126
7 7 6 3 3 3 4 6 12 12 7 0 nan nan nan nan 0 0 1 3 3 3 5 2 2 0 1 0 nan nan nan 0 nan nan nan nan nan nan 0 4 4 4 3 1 1 nan nan nan nan 0 1 34 73 73 80 76 76 91 93 101 101 120 143 158 158 149 134 112 95 95 89 95 105 105 112 122 123 123 129 139 139 139 136 133 133 135
12 6 3 6 6 6 6 10 8 8 2 nan nan nan nan 1 3 3 4 8 8 5 5 2 2 0 nan 0 0 0 nan 0 0 0 0 nan nan nan 1 5 5 9 6 5 5 2 nan nan nan nan 4 52 85 85 82 89 89 93 99 109 109 126 152 159 159 145 131 110 98 98 89 95 97 97 111 115 128 128 125 123 123 136 134 140 140 142
5 1 2 7 7 9 10 12 3 3 nan nan nan nan nan 1 4 4 6 6 6 6 5 1 1 nan nan nan nan nan 1 4 7 7 7 5 2 2 5 9 9 12 9 5 5 3 1 nan nan nan 18 85 93 93 92 97 97 99 103 112 112 132 151 150 150 140 126 114 98 98 95 91 93 93 100 110 119 119 124 118 118 130 136 141 141 135
4 4 6 14 14 16 12 3 0 0 nan nan nan nan 1 5 4 4 5 8 8 6 4 0 0 nan nan nan nan nan 7 20 25 25 26 23 14 14 9 13 13 15 11 8 8 5 2 3 3 34 75 94 96 96 99 100 100 99 105 114 114 134 145 146 146 137 126 112 100 100 91 91 86 86 99 107 119 119 117 114 114 121 131 133 133 118
11 15 21 19 19 12 5 2 nan nan 0 2 2 2 4 6 5 5 4 5 5 4 2 nan nan nan nan nan nan nan 6 17 24 24 21 19 14 14 10 14 14 13 8 5 5 0 2 2 2 16 67 87 94 94 94 96 96 100 106 113 113 133 145 141 141 135 129 117 99 99 82 74 77 77 82 99 109 109 111 103 103 115 126 123 123 110
29 32 24 14 14 3 0 nan 0 0 9 12 5 5 6 5 3 3 3 5 5 3 1 nan nan nan nan nan nan nan 0 5 10 10 12 13 9 9 6 7 7 5 5 2 2 2 2 1 1 1 37 77 87 87 93 92 92 94 102 117 117 130 141 144 144 135 125 116 93 93 73 62 62 62 70 84 92 92 97 102 102 105 121 114 114 102
31 25 19 8 8 1 4 0 10 10 19 16 6 6 7 6 6 6 6 3 3 0 nan nan nan nan nan nan nan nan 1 5 7 7 6 6 4 4 4 4 4 6 9 6 6 4 3 1 1 3 39 81 85 85 88 88 88 95 104 117 117 133 136 136 136 124 113 97 77 77 63 55 54 54 59 65 70 70 85 97 97 105 116 111 111 93
11 9 6 6 6 3 3 1 3 3 12 5 8 8 6 7 7 7 8 3 3 0 nan nan nan nan nan nan nan nan 3 4 8 8 7 8 6 6 8 7 7 8 11 4 4 2 4 3 3 3 35 81 76 76 82 83 83 88 102 115 115 125 123 118 118 109 99 83 65 65 57 55 46 46 47 52 60 60 78 92 92 108 114 105 105 83
4 6 6 5 5 2 1 0 1 1 2 3 7 7 11 11 12 12 9 3 3 nan nan nan nan nan nan 0 0 0 5 14 17 17 15 17 16 16 14 10 10 12 13 3 3 3 4 2 2 1 12 58 65 65 71 73 73 81 93 105 105 118 117 105 105 102 91 78 62 62 51 48 43 43 43 45 57 57 72 87 87 101 111 102 102 87
1 1 2 2 2 2 2 1 6 6 11 19 22 22 19 26 29 29 14 1 1 nan nan nan nan nan nan 6 1 1 3 5 12 12 18 16 15 15 12 8 8 10 7 1 1 1 1 0 0 0 2 25 54 54 57 63 63 73 85 94 94 105 105 102 102 99 91 77 65 65 52 52 46 46 42 43 52 52 68 83 83 94 98 98 98 82
34 20 7 14 14 51 82 100 107 107 82 32 11 11 9 18 19 19 4 nan nan nan nan nan nan nan nan nan nan nan 0 3 8 8 12 12 10 10 6 5 5 6 4 0 0 3 1 1 1 1 0 5 38 38 45 50 50 59 74 88 88 96 97 95 95 98 88 73 63 63 56 53 49 49 45 41 48 48 62 72 72 84 83 84 84 81
94 71 72 83 83 91 98 97 101 101 113 86 39 39 20 14 7 7 2 nan nan nan nan nan nan nan nan nan nan nan 0 3 2 2 4 5 3 3 3 3 3 3 6 3 3 4 7 4 4 2 0 nan 9 9 35 43 43 55 69 85 85 94 100 98 98 100 83 71 59 59 57 48 50 50 41 40 44 44 57 64 64 66 69 71 71 74
67 59 61 70 70 71 75 76 79 79 84 92 101 101 50 12 4 4 1 nan nan nan nan nan nan nan nan nan nan nan 0 3 2 2 1 2 2 2 1 2 2 5 5 3 3 8 28 10 10 1 nan nan nan nan 22 45 45 55 68 81 81 103 102 99 99 93 78 61 57 57 51 49 47 47 40 41 43 43 49 53 53 57 61 58 58 36
39 50 58 61 61 58 53 52 50 50 54 63 77 77 40 3 3 3 0 nan nan nan nan nan nan nan nan 0 0 0 1 5 2 2 1 0 2 2 2 6 6 7 9 6 6 7 10 3 3 0 nan 2 2 2 18 45 45 53 64 74 74 86 89 91 91 88 72 59 50 50 49 46 45 45 44 43 44 44 45 43 43 46 45 43 43 31
16 34 43 37 37 29 19 2 12 12 32 49 56 56 41 4 2 2 nan nan nan nan nan nan nan nan nan 0 1 1 0 1 0 0 2 4 8 8 6 9 9 8 6 5 5 4 nan nan nan nan 0 7 3 3 2 10 10 13 23 56 56 60 73 76 76 76 69 53 47 47 45 44 39 39 38 37 40 40 42 42 42 39 27 30 30 29
4 3 nan nan nan nan nan nan 0 0 20 41 48 48 32 0 nan nan nan nan nan nan nan nan nan nan nan nan nan nan nan nan 1 1 3 9 9 9 8 7 7 6 5 2 2 0 0 nan nan 0 2 3 1 1 nan nan nan nan nan 6 6 24 58 71 71 72 64 50 43 43 38 36 33 33 30 34 38 38 36 36 36 29 20 22 22 21
nan nan nan nan nan nan nan nan nan nan nan nan 1 1 11 11 2 2 nan nan nan nan nan nan nan nan nan nan nan nan nan nan 6 6 12 6 7 7 5 5 5 5 7 6 6 3 0 0 0 0 nan 0 nan nan nan 1 1 nan 1 3 3 5 43 59 59 61 57 55 47 47 42 35 31 31 29 28 27 27 26 27 27 25 15 11 11 17
nan nan nan nan nan nan nan nan 0 0 0 nan nan nan nan nan 6 6 nan nan nan nan nan nan nan nan nan nan nan nan nan nan 14 14 27 7 9 9 7 7 7 6 7 7 7 5 2 1 1 1 0 0 0 0 0 3 3 4 2 3 3 3 23 38 38 40 45 44 43 43 48 41 36 36 32 29 25 25 24 24 24 25 20 10 10 13
nan nan nan nan nan nan nan nan 0 0 0 nan 1 1 nan nan nan nan nan nan nan nan nan nan nan nan nan nan nan nan nan nan 16 16 24 9 8 8 9 5 5 8 7 7 7 4 1 0 0 2 0 0 0 0 0 1 1 4 1 4 4 11 14 30 30 34 36 35 26 26 29 27 38 38 29 27 24 24 22 23 23 22 23 14 14 10
nan nan nan nan nan nan nan 0 1 1 1 nan nan nan nan nan nan nan nan nan nan nan nan nan nan nan nan nan nan nan nan nan 8 8 26 11 8 8 7 6 6 6 7 7 7 3 1 3 3 6 3 1 0 0 0 0 0 0 1 7 7 9 13 23 23 34 36 30 25 25 20 17 22 22 24 24 23 23 22 22 22 21 20 20 20 15
nan nan nan nan nan nan nan 1 1 1 0 nan nan nan nan nan nan nan nan nan nan nan nan nan nan nan nan nan nan nan nan nan 5 5 23 7 2 2 3 5 5 6 5 6 6 8 5 4 4 10 10 2 0 0 0 0 0 0 1 2 2 4 9 20 20 22 25 24 21 21 16 14 14 14 17 28 26 26 22 26 26 19 17 18 18 18
nan nan nan nan nan nan 0 nan nan nan nan nan nan nan nan nan nan nan nan nan nan nan nan nan nan nan nan nan nan nan nan nan nan nan 4 2 0 0 nan 1 1 10 4 5 5 5 4 4 4 6 3 2 nan nan 0 1 1 1 1 1 1 4 5 7 7 5 12 22 19 19 16 12 11 11 13 23 18 18 19 20 20 18 19 17 17 16
0 1 0 nan nan nan nan nan 0 0 nan nan nan nan nan nan nan nan nan nan nan nan nan nan nan nan nan 4 nan nan nan nan nan nan nan nan nan nan nan nan nan 1 3 3 3 3 3 4 4 3 2 0 5 5 5 2 2 1 1 2 2 2 0 nan nan 0 9 25 28 28 25 18 11 11 9 6 3 3 3 3 3 13 19 13 13 13
0 1 0 nan nan nan nan nan nan nan nan nan nan nan nan nan nan nan nan nan nan nan nan nan nan nan nan nan nan nan nan nan nan nan nan nan nan nan nan nan nan nan 0 1 1 2 4 1 1 1 3 1 2 2 2 2 2 1 1 2 2 0 nan nan nan 3 12 15 26 26 21 15 14 14 13 6 2 2 1 nan nan 3 2 nan nan 3
1 1 0 1 1 nan nan nan nan nan nan nan 1 1 nan nan nan nan nan nan nan nan nan nan nan nan nan nan nan nan nan nan nan nan nan nan nan nan 0 nan nan 1 2 1 1 2 3 2 2 4 8 2 1 1 2 1 1 2 7 1 1 1 2 1 1 0 nan 1 5 5 7 11 12 12 15 8 4 4 1 nan nan nan 0 nan nan nan
1 0 nan nan nan nan 0 nan nan nan 0 2 nan nan nan nan nan nan nan nan nan nan nan nan nan nan nan nan nan nan nan nan nan nan nan nan nan nan nan 1 1 3 3 4 4 4 5 2 2 4 3 1 5 5 5 2 2 12 16 5 5 2 4 4 4 1 nan nan 2 2 6 10 16 16 14 12 7 7 2 nan nan nan nan nan nan nan
5 1 nan nan nan nan nan nan 0 0 2 3 0 0 nan nan nan nan nan nan nan nan nan nan nan nan nan nan nan nan nan nan nan nan nan nan nan nan nan 0 0 2 3 4 4 4 6 7 7 5 3 2 2 2 1 2 2 7 10 5 5 6 9 6 6 1 0 nan 0 0 13 13 13 13 14 10 5 5 4 nan nan nan nan nan nan nan
nan nan nan nan nan nan nan 0 3 3 5 3 0 0 nan nan nan nan 0 nan nan nan nan nan nan nan nan nan nan nan nan nan nan nan nan nan nan nan nan nan nan 1 3 4 4 5 8 12 12 4 3 2 1 1 2 2 2 2 5 9 9 7 2 2 2 1 1 2 2 2 5 15 17 17 21 17 11 11 6 4 4 3 nan nan nan nan
nan nan nan nan nan nan 1 3 3 3 3 1 0 0 nan nan 0 0 0 nan nan nan nan nan nan nan nan nan nan nan nan nan nan nan nan nan nan nan nan nan nan 0 2 4 4 5 5 8 8 5 3 2 1 1 1 1 1 1 2 7 7 7 2 1 1 2 2 2 0 0 1 11 22 22 27 22 17 17 10 3 3 nan nan nan nan nan
nan nan nan 0 0 1 4 4 3 3 2 1 0 0 0 nan 1 1 nan nan nan nan nan nan nan nan nan nan nan nan nan nan nan nan nan nan 8 8 0 nan nan nan 3 4 4 6 5 4 4 4 2 3 1 1 2 1 1 2 7 8 8 6 4 3 3 4 3 2 0 0 nan 0 9 9 16 17 12 12 12 7 7 0 nan nan nan nan
nan nan nan nan nan 0 4 4 4 4 2 1 1 1 0 nan nan nan nan nan nan nan nan nan nan nan nan nan nan nan nan nan nan nan nan nan nan nan nan nan nan 0 0 2 2 3 6 6 6 6 7 5 3 3 1 2 2 1 3 8 8 5 4 4 4 5 4 2 0 0 nan nan 4 4 9 12 11 11 12 5 5 1 nan nan nan nan
nan nan nan nan nan 0 1 4 4 4 4 3 3 3 0 nan nan nan nan nan nan nan nan nan nan nan nan nan nan nan nan nan nan nan nan nan nan nan nan nan nan 1 0 0 0 1 8 12 12 16 11 8 4 4 2 1 1 1 1 3 3 3 3 3 3 3 5 4 0 0 1 2 4 4 6 8 8 8 3 0 0 nan nan nan nan nan
nan nan nan nan nan 0 0 2 3 3 5 4 3 3 1 nan nan nan nan nan nan nan nan nan nan nan nan nan nan nan nan nan nan nan nan nan nan nan nan nan nan nan 2 5 5 10 7 10 10 15 14 8 4 4 2 0 0 0 1 1 1 2 2 3 3 2 4 6 7 7 7 5 5 5 5 5 6 6 1 nan nan nan nan nan nan nan
nan nan nan nan nan nan 0 1 1 1 3 4 4 4 2 5 19 19 0 nan nan nan nan nan nan nan nan nan nan nan nan nan nan nan nan nan nan nan nan nan nan nan nan 1 1 2 3 4 4 6 6 5 4 4 3 1 1 0 0 1 1 1 3 3 3 2 4 7 13 13 13 5 4 4 4 4 5 5 3 nan nan nan nan nan nan nan
nan nan nan nan nan nan nan 0 1 1 4 5 5 5 3 3 3 3 nan nan nan nan nan nan nan nan nan nan nan nan nan nan nan nan nan nan nan nan nan nan nan nan nan 0 0 0 nan 1 1 5 14 12 3 3 1 1 1 0 nan nan nan 0 2 2 2 2 3 5 12 12 15 8 8 8 7 5 6 6 4 1 1 nan nan nan nan nan
nan nan nan nan nan nan 0 nan 0 0 4 8 8 8 5 1 nan nan nan nan nan nan nan nan nan nan nan nan nan nan nan nan nan nan nan nan nan nan nan nan nan nan nan 0 0 nan nan nan nan nan 12 33 18 18 1 0 0 nan nan nan nan nan 0 1 1 3 5 5 8 8 14 14 12 12 8 6 6 6 4 0 0 nan nan nan nan nan
CIN
nan nan nan nan nan nan nan nan nan nan nan nan nan nan nan nan nan nan -2 nan nan nan nan nan nan nan -0 -0 -0 -0 -0 -0 -0 -0 -0 -0 -0 -0 -0 -0 -0 -0 -0 -0 -0 -0 -0 -0 -0 -0 -0 -0 -0 -0 -0 -0 -0 -0 -0 -0 -0 -0 -0 -0 -0 -0 -0 -0 -0 -0 -0 -0 -0 -0 -0 -0 -0 -0 -0 -0 -0 -0 -0 -0 -0 -0
nan nan nan nan nan nan nan nan nan nan nan nan nan nan nan nan nan nan nan nan nan nan nan nan nan nan nan -0 -0 -0 -0 -0 -0 -0 -0 -0 -0 -0 -0 -0 -0 -0 -0 -0 -0 -0 -0 -0 -0 -0 -0 -0 -0 -0 -0 -0 -0 -0 -0 -0 -0 -0 -0 -0 -0 -0 -0 -0 -0 -0 -0 -0 -0 -0 -0 -0 -0 -0 -0 -0 -0 -0 -0 -0 -0 -0
nan nan nan nan nan nan nan nan nan nan nan nan nan nan nan nan nan nan nan nan nan nan nan nan nan nan nan -0 -0 -0 -0 -0 -0 -0 -0 -0 -0 -0 -0 -0 -0 -0 -0 -0 -0 -0 -0 -0 -0 -0 -0 -0 -0 -0 -0 -0 -0 -0 -0 -0 -0 -0 -0 -0 -0 -0 -0 -0 -0 -0 -0 -0 -0 -0 -0 -0 -0 -0 -0 -0 -0 -0 -0 -0 -0 -0
nan nan nan nan nan nan nan nan nan nan nan nan nan nan nan nan nan nan nan nan nan nan nan nan nan nan nan -7 -0 -0 -0 -0 -0 -0 -0 -0 -0 -0 -0 -0 -0 -0 -0 -0 -0 -0 -0 -0 -0 -0 -0 -0 -0 -0 -0 -0 -0 -0 -0 -0 -0 -0 -0 -0 -0 -0 -0 -0 -0 -0 -0 -0 -0 -0 -0 -0 -0 -0 -0 -0 -0 -0 -0 -0 -0 -0
nan nan nan nan nan nan nan nan nan nan nan nan nan nan nan nan nan nan nan nan nan nan nan nan nan nan nan nan -0 -0 -0 -0 -0 -0 -0 -0 -0 -0 -0 -0 -0 -0 -0 -0 -0 -0 -0 -0 -0 -0 -0 -0 -0 -0 -0 -0 -0 -0 -0 -0 -0 -0 -0 -0 -0 -0 -0 -0 -0 -0 -0 -0 -0 -0 -0 -0 -0 -0 -0 -0 -0 -0 -0 -0 -0 -0
nan nan nan nan nan nan nan nan nan nan nan nan nan nan nan nan nan nan nan nan nan nan nan nan nan nan nan nan -0 -0 -0 -0 -0 -0 -0 -0 -0 -0 -0 -0 -0 -0 -0 -0 -0 -0 -0 -0 -0 -0 -0 -0 -0 -0 -0 -0 -0 -0 -0 -0 -0 -0 -0 -0 -0 -0 -0 -0 -0 -0 -0 -0 -0 -0 -0 -0 -0 -0 -0 -0 -0 -0 -0 -0 -0 -0
nan nan nan nan nan nan nan nan -4 -4 nan nan nan nan nan nan nan nan nan nan nan nan nan nan nan nan nan nan -0 -0 -0 -0 -0 -0 -0 -0 -0 -0 -0 -0 -0 -0 -0 -0 -0 -0 -0 -0 -0 -0 -0 -0 -0 -0 -0 -0 -0 -0 -0 -0 -0 -0 -0 -0 -0 -0 -0 -0 -0 -0 -0 -0 -0 -0 -0 -0 -0 -0 -0 -0 -0 -0 -0 -0 -0 -0
nan nan nan nan nan nan nan nan nan nan nan nan nan nan nan nan nan nan nan nan nan nan nan nan nan nan nan nan -9 -9 -9 -6 -0 -0 -0 -0 -0 -0 -0 -0 -0 -0 -0 -0 -0 -0 -0 -0 -0 -0 -0 -0 -0 -0 -0 -0 -0 -0 -0 -0 -0 -0 -0 -0 -0 -0 -0 -0 -0 -0 -0 -0 -0 -0 -0 -0 -0 -0 -0 -0 -0 -0 -0 -0 -0 -0
nan nan nan nan nan nan nan nan nan nan -28 nan nan nan nan nan nan nan nan nan nan nan nan nan nan nan nan nan -16 -16 -0 -0 -0 -0 -0 -0 -0 -0 -0 -0 -0 -0 -0 -0 -0 -0 -0 -0 -0 -0 -0 -0 -0 -0 -0 -0 -0 -0 -0 -0 -0 -0 -0 -0 -0 -0 -0 -0 -0 -0 -0 -0 -0 -0 -0 -0 -0 -0 -0 -0 -0 -0 -0 -0 -0 -0
nan nan nan nan nan nan nan nan nan nan -31 nan nan nan nan nan nan nan nan nan nan nan -23 -21 -21 -7 -16 -36 -34 -34 -3 -0 -0 -0 -0 -0 -0 -0 -0 -0 -0 -0 -0 -0 -0 -0 -0 -0 -0 -0 -0 -0 -0 -0 -0 -0 -0 -0 -0 -0 -0 -0 -0 -0 -0 -0 -0 -0 -0 -0 -0 -0 -0 -0 -0 -0 -0 -0 -0 -0 -0 -0 -0 -0 -0 -0
-2 -1 nan -10 -10 -8 -19 -17 -21 -21 -35 -35 nan nan nan nan nan nan nan nan nan -11 -13 -14 -14 -20 -13 -18 -23 -23 -11 nan -5 -5 -0 -0 -0 -0 -0 -0 -0 -0 -0 -0 -0 -0 -0 -0 -0 -0 -0 -0 -0 -0 -0 -0 -0 -0 -0 -0 -0 -0 -0 -0 -0 -0 -0 -0 -0 -0 -0 -0 -0 -0 -0 -0 -0 -0 -0 -0 -0 -0 -0 -0 -0 -0
-0 -0 -5 -9 -9 -8 -13 -17 -31 -31 -41 nan nan nan nan nan nan nan nan -11 -11 -16 -14 -22 -22 -27 -23 -18 -6 -6 -15 nan -14 -14 nan -11 -0 -0 -0 -0 -0 -0 -0 -0 -0 -0 -0 -0 -0 -0 -0 -0 -0 -0 -0 -0 -0 -0 -0 -0 -0 -0 -0 -0 -0 -0 -0 -0 -0 -0 -0 -0 -0 -0 -0 -0 -0 -0 -0 -0 -0 -0 -0 -0 -0 -0
-1 -8 -10 -9 -9 -11 -17 -21 -27 -27 -33 -26 -24 -24 -18 -16 -38 -38 -32 nan nan -17 -15 -20 -20 -19 -26 -33 -20 -20 -18 nan -16 -16 -13 -10 -17 -17 -16 -8 -8 -6 -7 -7 -7 -12 -0 -0 -0 -0 -0 -0 -0 -0 -0 -0 -0 -0 -0 -0 -0 -0 -0 -0 -0 -0 -0 -0 -0 -0 -0 -0 -0 -0 -0 -0 -0 -0 -0 -0 -0 -0 -0 -0 -0 -0
-5 -7 -12 -11 -11 -15 -19 -21 -18 -18 -16 -14 -21 -21 -30 -38 nan nan nan -20 -20 -23 -21 -15 -15 -17 -22 -30 -34 -34 -31 -20 -11 -11 -8 -12 nan nan -19 -9 -9 -9 -12 nan nan nan -0 -0 -0 -0 -0 -0 -0 -0 -0 -0 -0 -0 -0 -0 -0 -0 -0 -0 -0 -0 -0 -0 -0 -0 -0 -0 -0 -0 -0 -0 -0 -0 -0 -0 -0 -0 -0 -0 -0 -0
-10 -9 -10 -11 -11 -13 -14 -17 -14 -14 -10 -17 -32 -32 nan nan nan nan nan -21 -21 -20 -18 -14 -14 -19 -18 -27 nan nan nan nan nan nan nan nan nan nan -32 -14 -14 -17 -18 -17 -17 nan -0 -1 -1 -26 -12 -0 -0 -0 -0 -0 -0 -0 -0 -0 -0 -0 -0 -0 -0 -0 -0 -0 -0 -0 -0 -0 -0 -0 -0 -0 -0 -0 -0 -0 -0 -0 -0 -0 -0 -0
-10 -14 -10 -9 -9 -9 -9 -14 -13 -13 -15 -31 nan nan nan nan -22 -22 -21 -18 -18 -18 -13 -12 -12 -15 -15 -21 nan nan nan -19 nan nan nan nan nan nan -27 -13 -13 -9 -16 -13 -13 nan nan nan nan -24 -19 -0 -0 -0 -0 -0 -0 -0 -0 -0 -0 -0 -0 -0 -0 -0 -0 -0 -0 -0 -0 -0 -0 -0 -0 -0 -0 -0 -0 -0 -0 -0 -0 -0 -0 -0
-11 -12 -11 -6 -6 -8 -10 -16 -16 -16 -26 nan nan nan nan -19 -19 -19 -20 -12 -12 -16 -12 -13 -13 -10 nan -15 -26 -26 nan -17 -12 -12 -11 nan nan nan -25 -10 -10 -0 -8 -6 -6 -9 nan nan nan nan -15 -0 -0 -0 -0 -0 -0 -0 -0 -0 -0 -0 -0 -0 -0 -0 -0 -0 -0 -0 -0 -0 -0 -0 -0 -0 -0 -0 -0 -0 -0 -0 -0 -0 -0 -0
-11 -11 -8 -6 -6 -8 -9 -11 -20 -20 nan nan nan nan nan -26 -20 -20 -16 -15 -15 -11 -10 -14 -14 nan nan nan nan nan -23 -12 -4 -4 -5 -8 -16 -16 -20 -11 -11 -2 -0 -10 -10 -15 -19 nan nan nan -2 -0 -0 -0 -0 -0 -0 -0 -0 -0 -0 -0 -0 -0 -0 -0 -0 -0 -0 -0 -0 -0 -0 -0 -0 -0 -0 -0 -0 -0 -0 -0 -0 -0 -0 -0
-6 -7 -8 -5 -5 -5 -7 -14 -23 -23 nan nan nan nan -15 -15 -18 -18 -14 -11 -11 -12 -11 -15 -15 nan nan nan nan nan -20 -6 -1 -1 -1 -0 -9 -9 -19 -10 -10 -0 -5 -5 -5 -9 -15 -26 -26 -0 -0 -0 -0 -0 -0 -0 -0 -0 -0 -0 -0 -0 -0 -0 -0 -0 -0 -0 -0 -0 -0 -0 -0 -0 -0 -0 -0 -0 -0 -0 -0 -0 -0 -0 -0 -0
-5 -5 -4 -4 -4 -10 -12 -12 nan nan -14 -14 -16 -16 -9 -10 -11 -11 -14 -16 -16 -17 -18 nan nan nan nan nan nan nan -16 -6 -1 -1 -2 -2 -6 -6 -14 -7 -7 -3 -6 -9 -9 -25 -18 -27 -27 -9 -0 -0 -0 -0 -0 -0 -0 -0 -0 -0 -0 -0 -0 -0 -0 -0 -0 -0 -0 -0 -0 -0 -0 -0 -0 -0 -0 -0 -0 -0 -0 -0 -0 -0 -0 -0
-3 -2 -4 -10 -10 -16 -17 nan -14 -14 -4 -10 -13 -13 -8 -9 -13 -13 -16 -15 -15 -19 -21 nan nan nan nan nan nan nan -14 -9 -0 -0 -3 -2 -5 -5 -9 -7 -7 -6 -5 -13 -13 -21 -16 -18 -18 -30 -0 -0 -0 -0 -0 -0 -0 -0 -0 -0 -0 -0 -0 -0 -0 -0 -0 -0 -0 -0 -0 -0 -0 -0 -0 -0 -0 -0 -0 -0 -0 -0 -0 -0 -0 -0
-2 -2 -4 -10 -10 -16 -9 -18 -7 -7 -2 -9 -8 -8 -6 -9 -11 -11 -13 -18 -18 -20 nan nan nan nan nan nan nan nan -13 -8 -0 -0 -3 -3 -4 -4 -7 -9 -9 -5 -3 -6 -6 -15 -15 -15 -15 -17 -0 -0 -0 -0 -0 -0 -0 -0 -0 -0 -0 -0 -0 -0 -0 -0 -0 -0 -0 -0 -0 -0 -0 -0 -0 -0 -0 -0 -0 -0 -0 -0 -0 -0 -0 -0
-4 -5 -6 -10 -10 -15 -14 -23 -17 -17 -6 -10 -1 -1 -9 -14 -14 -14 -10 -15 -15 -19 nan nan nan nan nan nan nan nan -11 -8 -4 -4 -3 -0 -5 -5 -5 -10 -10 -4 -2 -8 -8 -12 -12 -15 -15 -17 -0 -0 -0 -0 -0 -0 -0 -0 -0 -0 -0 -0 -0 -0 -0 -0 -0 -0 -0 -0 -0 -0 -0 -0 -0 -0 -0 -0 -0 -0 -0 -0 -0 -0 -0 -0
-4 -4 -9 -16 -16 -23 -22 -23 -24 -24 -22 -22 -21 -21 -21 -21 -15 -15 -13 -17 -17 nan nan nan nan nan nan -7 -9 -9 -9 -4 -4 -4 -1 -0 -1 -1 -4 -6 -6 -1 -0 -10 -10 -13 -14 -16 -16 -22 -7 -0 -0 -0 -0 -0 -0 -0 -0 -0 -0 -0 -0 -0 -0 -0 -0 -0 -0 -0 -0 -0 -0 -0 -0 -0 -0 -0 -0 -0 -0 -0 -0 -0 -0 -0
-4 -3 -8 -11 -11 -28 -23 -28 -24 -24 -22 -16 -15 -15 -18 -9 -4 -4 -9 -19 -19 nan nan nan nan nan nan -0 -0 -0 -4 -4 -7 -7 -1 -0 -1 -1 -0 -5 -5 -0 -3 -16 -16 -19 -18 -15 -15 -19 -22 -0 -0 -0 -0 -0 -0 -0 -0 -0 -0 -0 -0 -0 -0 -0 -0 -0 -0 -0 -0 -0 -0 -0 -0 -0 -0 -0 -0 -0 -0 -0 -0 -0 -0 -0
-0 -0 -2 -2 -2 -2 -0 -0 -0 -0 -0 -11 -22 -22 -20 -10 -6 -6 -13 nan nan nan nan nan nan nan nan nan nan nan -0 -10 -6 -6 -2 -1 -0 -0 -0 -7 -7 -5 -4 -14 -14 -7 -11 -12 -12 -18 -22 -4 -0 -0 -0 -0 -0 -0 -0 -0 -0 -0 -0 -0 -0 -0 -0 -0 -0 -0 -0 -0 -0 -0 -0 -0 -0 -0 -0 -0 -0 -0 -0 -0 -0 -0
-0 -0 -0 -0 -0 -0 -0 -0 -0 -0 -0 -0 -3 -3 -11 -11 -9 -9 -10 nan nan nan nan nan nan nan nan nan nan nan -0 -0 -3 -3 -5 -2 -0 -0 -0 -4 -4 -3 -2 -6 -6 -7 -2 -4 -4 -9 -18 nan -0 -0 -0 -0 -0 -0 -0 -0 -0 -0 -0 -0 -0 -0 -0 -0 -0 -0 -0 -0 -0 -0 -0 -0 -0 -0 -0 -0 -0 -0 -0 -0 -0 -0
-0 -0 -0 -0 -0 -0 -0 -0 -0 -0 -0 -0 -0 -0 -0 -9 -7 -7 -9 nan nan nan nan nan nan nan nan nan nan nan -4 -0 -6 -6 -12 -8 -0 -0 -2 -4 -4 -5 -5 -7 -7 -4 -0 -0 -0 -11 nan nan nan nan -0 -0 -0 -0 -0 -0 -0 -0 -0 -0 -0 -0 -0 -0 -0 -0 -0 -0 -0 -0 -0 -0 -0 -0 -0 -0 -0 -0 -0 -0 -0 -0
-0 -0 -0 -0 -0 -0 -0 -0 -0 -0 -0 -0 -0 -0 -0 -16 -7 -7 -13 nan nan nan nan nan nan nan nan -0 -2 -2 -0 -0 -5 -5 -10 -6 -1 -1 -3 -2 -2 -4 -1 -3 -3 -6 -0 -5 -5 -18 nan -14 -13 -13 -0 -0 -0 -0 -0 -0 -0 -0 -0 -0 -0 -0 -0 -0 -0 -0 -0 -0 -0 -0 -0 -0 -0 -0 -0 -0 -0 -0 -0 -0 -0 -0
-1 -0 -0 -0 -0 -0 -0 -0 -0 -0 -0 -0 -0 -0 -0 -19 -13 -13 nan nan nan nan nan nan nan nan nan -2 -0 -0 -0 -0 -7 -7 -7 -1 -0 -0 -1 -1 -1 -3 -4 -0 -0 -4 nan nan nan nan -23 -0 -4 -4 -11 -0 -0 -3 -0 -0 -0 -0 -0 -0 -0 -0 -0 -0 -0 -0 -0 -0 -0 -0 -0 -0 -0 -0 -0 -0 -0 -0 -0 -0 -0 -0
-13 -13 nan nan nan nan nan nan -5 -5 -0 -0 -0 -0 -0 -25 nan nan nan nan nan nan nan nan nan nan nan nan nan nan nan nan -0 -0 -5 -0 -0 -0 -0 -2 -2 -3 -5 -4 -4 -4 -6 nan nan -7 -6 -5 -7 -7 nan nan nan nan nan -0 -0 -0 -0 -0 -0 -0 -0 -0 -0 -0 -0 -0 -0 -0 -0 -0 -0 -0 -0 -0 -0 -0 -0 -0 -0 -0
nan nan nan nan nan nan nan nan nan nan nan nan -22 -22 -3 -2 -8 -8 nan nan nan nan nan nan nan nan nan nan nan nan nan nan -0 -0 -0 -2 -1 -1 -3 -3 -3 -3 -4 -7 -7 -5 -4 -2 -2 -3 nan -13 nan nan nan -9 -9 nan -13 -4 -4 -4 -0 -0 -0 -0 -0 -0 -0 -0 -0 -0 -0 -0 -0 -0 -0 -0 -0 -0 -0 -0 -0 -0 -0 -0
nan nan nan nan nan nan nan nan -21 -21 -22 nan nan nan nan nan -3 -3 nan nan nan nan nan nan nan nan nan nan nan nan nan nan -0 -0 -0 -2 -0 -0 -1 -1 -1 -3 -3 -4 -4 -6 -5 -4 -4 -5 -7 -9 -11 -11 -11 -2 -2 -1 -8 -5 -5 -8 -0 -0 -0 -0 -0 -0 -0 -0 -0 -0 -0 -0 -0 -0 -0 -0 -0 -0 -0 -0 -0 -0 -0 -0
nan nan nan nan nan nan nan nan -20 -20 -25 nan -22 -22 nan nan nan nan nan nan nan nan nan nan nan nan nan nan nan nan nan nan -0 -0 -0 -0 -0 -0 -0 -1 -1 -0 -2 -2 -2 -3 -6 -6 -6 -3 -4 -8 -5 -5 -5 -2 -2 -0 -14 -8 -8 -3 -5 -1 -1 -0 -0 -0 -0 -0 -0 -0 -0 -0 -0 -0 -0 -0 -0 -0 -0 -0 -0 -0 -0 -0
nan nan nan nan nan nan nan -21 -15 -15 -16 nan nan nan nan nan nan nan nan nan nan nan nan nan nan nan nan nan nan nan nan nan -0 -0 -0 -0 -0 -0 -0 -0 -0 -1 -0 -0 -0 -2 -3 -1 -1 -0 -0 -3 -5 -5 -4 -7 -7 -11 -8 -7 -7 -11 -9 -9 -9 -2 -0 -0 -0 -0 -1 -1 -0 -0 -0 -0 -0 -0 -0 -0 -0 -0 -0 -0 -0 -0
nan nan nan nan nan nan nan -14 -15 -15 -15 nan nan nan nan nan nan nan nan nan nan nan nan nan nan nan nan nan nan nan nan nan -0 -0 -0 -1 -2 -2 -0 -1 -1 -0 -0 -0 -0 -0 -0 -1 -1 -0 -0 -0 -3 -3 -2 -4 -4 -10 -4 -7 -7 -12 -11 -8 -8 -7 -2 -0 -0 -0 -1 -1 -0 -0 -0 -0 -0 -0 -0 -0 -0 -0 -0 -0 -0 -0
nan nan nan nan nan nan -10 nan nan nan nan nan nan nan nan nan nan nan nan nan nan nan nan nan nan nan nan nan nan nan nan nan nan nan -3 -4 -2 -2 nan -2 -2 -0 -1 -1 -1 -0 -1 -0 -0 -0 -0 -0 nan nan -4 -4 -4 -6 -5 -5 -5 -5 -14 -10 -10 -11 -6 -0 -0 -0 -0 -1 -2 -2 -0 -0 -0 -0 -0 -0 -0 -0 -0 -0 -0 -0
-3 -3 -9 nan nan nan nan nan -13 -13 nan nan nan nan nan nan nan nan nan nan nan nan nan nan nan nan nan -7 nan nan nan nan nan nan nan nan nan nan nan nan nan -1 -1 -1 -1 -1 -1 -0 -0 -0 -0 -1 -0 -0 -0 -2 -2 -4 -6 -4 -4 -6 -15 nan nan -14 -3 -0 -0 -0 -0 -0 -3 -3 -4 -3 -6 -6 -4 -7 -7 -2 -0 -0 -0 -0
-2 -4 -9 nan nan nan nan nan nan nan nan nan nan nan nan nan nan nan nan nan nan nan nan nan nan nan nan nan nan nan nan nan nan nan nan nan nan nan nan nan nan nan -5 -4 -4 -2 -1 -2 -2 -2 -0 -0 -1 -1 -1 -2 -2 -4 -3 -4 -4 -8 nan nan nan -9 -3 -1 -0 -0 -0 -0 -0 -0 -0 -5 -8 -8 -7 nan nan -11 -20 nan nan -2
-2 -6 -8 -7 -7 nan nan nan nan nan nan nan -15 -15 nan nan nan nan nan nan nan nan nan nan nan nan nan nan nan nan nan nan nan nan nan nan nan nan -5 nan nan -3 -3 -6 -6 -3 -2 -3 -3 -0 -0 -2 -3 -3 -4 -6 -6 -4 -0 -3 -3 -4 -2 -7 -7 -14 nan -8 -0 -0 -0 -1 -0 -0 -0 -2 -7 -7 -8 nan nan nan -25 nan nan nan
-2 -7 nan nan nan nan -7 nan nan nan -20 -13 nan nan nan nan nan nan nan nan nan nan nan nan nan nan nan nan nan nan nan nan nan nan nan nan nan nan nan -2 -2 -2 -2 -2 -2 -3 -2 -3 -3 -2 -3 -5 -1 -1 -0 -3 -3 -0 -0 -1 -1 -4 -4 -4 -4 -9 nan nan -2 -2 -0 -0 -0 -0 -0 -0 -1 -1 -9 nan nan nan nan nan nan nan
-0 -4 nan nan nan nan nan nan -8 -8 -9 -10 -17 -17 nan nan nan nan nan nan nan nan nan nan nan nan nan nan nan nan nan nan nan nan nan nan nan nan nan -3 -3 -2 -2 -2 -2 -3 -2 -1 -1 -1 -3 -4 -3 -3 -5 -3 -3 -0 -0 -2 -2 -2 -0 -0 -0 -11 -12 nan -13 -13 -0 -0 -0 -0 -0 -3 -9 -9 -9 nan nan nan nan nan nan nan
nan nan nan nan nan nan nan -9 -3 -3 -3 -9 -17 -17 nan nan nan nan -8 nan nan nan nan nan nan nan nan nan nan nan nan nan nan nan nan nan nan nan nan nan nan -4 -1 -1 -1 -2 -1 -0 -0 -2 -4 -5 -4 -4 -2 -3 -3 -2 -1 -0 -0 -1 -4 -7 -7 -6 -8 -10 -14 -14 -8 -0 -0 -0 -0 -1 -4 -4 -9 -6 -6 -1 nan nan nan nan
nan nan nan nan nan nan -7 -5 -6 -6 -5 -10 -15 -15 nan nan -11 -11 -5 nan nan nan nan nan nan nan nan nan nan nan nan nan nan nan nan nan nan nan nan nan nan -8 -4 -1 -1 -1 -2 -1 -1 -3 -5 -6 -4 -4 -2 -4 -4 -6 -6 -1 -1 -1 -3 -6 -6 -5 -5 -7 -13 -13 -14 -3 -1 -1 -0 -0 -1 -1 -8 -10 -10 nan nan nan nan nan
nan nan nan -10 -10 -9 -6 -6 -6 -6 -6 -8 -16 -16 -19 nan -9 -9 nan nan nan nan nan nan nan nan nan nan nan nan nan nan nan nan nan nan -0 -0 -24 nan nan nan -5 -2 -2 -1 -1 -2 -2 -3 -5 -5 -4 -4 -3 -4 -4 -5 -0 -0 -0 -2 -6 -6 -6 -5 -4 -7 -9 -9 nan -13 -3 -3 -0 -0 -3 -3 -4 -7 -7 -16 nan nan nan nan
nan nan nan nan nan -8 -2 -4 -5 -5 -7 -11 -10 -10 -16 nan nan nan nan nan nan nan nan nan nan nan nan nan nan nan nan nan nan nan nan nan nan nan nan nan nan -15 -10 -4 -4 -2 -1 -1 -1 -1 -1 -2 -4 -4 -6 -5 -5 -6 -3 -0 -0 -4 -6 -6 -6 -6 -6 -8 -11 -11 nan nan -2 -2 -0 -1 -1 -1 -2 -9 -9 -13 nan nan nan nan
nan nan nan nan nan -7 -6 -3 -4 -4 -3 -3 -7 -7 -14 nan nan nan nan nan nan nan nan nan nan nan nan nan nan nan nan nan nan nan nan nan nan nan nan nan nan -14 -12 -9 -9 -5 -1 -1 -1 -1 -1 -1 -3 -3 -6 -9 -9 -7 -6 -6 -6 -6 -6 -7 -7 -8 -7 -6 -12 -12 -13 -9 -1 -1 -0 -1 -2 -2 -6 -14 -14 nan nan nan nan nan
nan nan nan nan nan -6 -4 -4 -5 -5 -3 -3 -6 -6 -10 nan nan nan nan nan nan nan nan nan nan nan nan nan nan nan nan nan nan nan nan nan nan nan nan nan nan nan -12 -6 -6 -2 -3 -4 -4 -2 -1 -0 -1 -1 -4 -7 -7 -8 -8 -7 -7 -7 -6 -8 -8 -10 -9 -5 -10 -10 -8 -4 -1 -1 -1 -2 -1 -1 -6 nan nan nan nan nan nan nan
nan nan nan nan nan nan -5 -5 -6 -6 -5 -5 -5 -5 -10 -3 -0 -0 -7 nan nan nan nan nan nan nan nan nan nan nan nan nan nan nan nan nan nan nan nan nan nan nan nan -14 -14 -9 -7 -6 -6 -3 -1 -1 -1 -1 -2 -4 -4 -6 -8 -7 -7 -7 -5 -8 -8 -10 -9 -10 -10 -10 -7 -3 -2 -2 -1 -1 -1 -1 -2 nan nan nan nan nan nan nan
nan nan nan nan nan nan nan -3 -2 -2 -4 -3 -4 -4 -9 -7 -4 -4 nan nan nan nan nan nan nan nan nan nan nan nan nan nan nan nan nan nan nan nan nan nan nan nan nan -15 -15 -11 nan -10 -10 -6 -0 -0 -1 -1 -2 -3 -3 -5 nan nan nan -8 -5 -6 -6 -8 -10 -10 -10 -10 -7 -5 -3 -3 -1 -0 -0 -0 -1 -6 -6 nan nan nan nan nan
nan nan nan nan nan nan -4 nan -3 -3 -3 -2 -4 -4 -6 -10 nan nan nan nan nan nan nan nan nan nan nan nan nan nan nan nan nan nan nan nan nan nan nan nan nan nan nan -6 -6 nan nan nan nan nan -0 -0 -0 -0 -3 -3 -3 nan nan nan nan nan -8 -7 -7 -7 -4 -6 -10 -10 -7 -4 -3 -3 -1 -1 -0 -0 -1 -5 -5 nan nan nan nan nan
Wind_Speed
9 9 10 11 12 12 11 13 14 14 13 12 11 12 12 13 13 14 17 17 17 16 16 16 16 18 20 24 27 29 30 31 32 32 33 33 34 34 35 35 35 35 35 35 35 35 35 35 35 36 36 36 36 36 36 36 36 36 36 37 36 36 36 36 35 35 34 34 34 34 34 33 33 33 32 32 33 34 36 37 38 38 38 39 40 41
9 9 9 12 13 13 11 13 14 14 13 13 13 12 13 14 14 13 13 15 16 16 15 15 16 18 19 21 24 27 29 30 31 32 33 33 34 34 34 35 35 35 35 35 36 36 36 36 36 36 36 36 36 35 35 35 35 35 36 36 35 35 35 35 35 34 33 33 33 33 33 33 33 32 32 32 32 34 34 35 36 37 37 38 39 40
9 9 9 10 11 12 11 12 13 13 14 14 14 14 16 16 15 13 12 12 13 13 13 14 15 16 18 19 22 26 28 30 31 32 32 33 33 34 34 34 34 35 35 36 36 36 36 36 36 36 36 35 35 35 35 35 35 35 35 35 35 35 35 35 34 33 32 32 33 33 33 33 32 32 30 31 31 32 33 34 35 36 37 38 38 39
9 9 9 8 9 11 11 12 12 12 12 13 15 16 17 16 14 13 12 12 12 12 12 14 15 15 15 16 19 23 27 29 30 31 32 33 33 33 34 34 34 35 35 36 36 36 36 36 36 35 35 35 34 34 34 35 35 35 35 35 35 34 34 34 33 33 32 32 32 32 32 32 32 30 29 29 29 30 31 33 34 36 36 37 38 39
9 9 9 8 9 10 11 11 12 12 11 12 14 15 15 13 12 12 12 12 12 12 12 13 14 14 13 13 16 21 26 28 30 31 32 32 33 33 34 34 34 35 35 35 36 36 36 36 35 35 34 34 34 34 34 34 35 35 35 35 34 34 34 33 33 32 32 32 32 32 32 31 30 29 28 27 28 28 30 31 33 35 36 37 38 39
9 9 9 8 8 8 9 10 10 10 11 11 12 12 12 12 11 11 11 11 12 12 11 11 12 13 13 13 16 21 25 27 29 30 31 31 32 33 33 34 34 34 35 35 35 35 35 34 34 34 33 33 33 34 34 34 35 35 35 35 34 33 33 33 32 32 32 32 32 31 31 30 29 28 27 26 26 27 28 30 32 33 35 36 37 39
9 9 8 8 8 8 8 9 10 10 10 10 10 11 11 11 11 11 11 11 11 11 10 11 11 12 13 14 17 20 22 25 26 28 28 29 30 30 31 32 33 33 34 34 34 33 33 33 33 33 33 33 33 34 34 34 35 35 35 35 34 33 32 32 32 32 32 32 31 30 30 29 28 27 26 25 25 26 27 29 30 32 34 35 36 38
10 9 9 9 9 8 8 9 9 10 10 10 10 10 11 10 10 10 11 12 11 10 10 10 11 11 11 13 15 16 16 18 19 20 22 23 25 26 28 30 31 32 32 32 32 32 32 32 32 32 32 33 33 34 34 34 34 35 35 34 33 33 32 32 32 32 32 31 30 30 29 28 27 26 25 24 24 25 26 28 29 31 33 34 35 37
11 10 10 9 9 9 9 9 9 9 10 10 10 10 11 10 10 10 10 10 10 10 9 9 10 10 11 11 12 12 13 14 14 14 16 16 18 21 24 26 28 29 30 31 31 31 31 31 31 32 32 33 33 34 34 34 34 34 34 33 32 31 31 31 31 31 31 30 29 29 28 27 26 25 24 23 23 24 26 27 29 30 32 33 34 36
11 11 10 10 9 9 9 9 9 9 10 10 9 9 9 10 10 10 10 10 9 8 8 9 10 10 10 10 10 11 13 14 16 18 20 20 21 23 24 24 24 25 28 29 29 30 30 30 31 31 32 32 33 33 33 33 33 33 33 32 31 30 29 29 29 29 29 28 28 28 27 27 26 25 23 23 23 24 25 27 28 30 31 32 33 34
10 10 9 9 8 8 8 8 8 9 9 9 9 8 7 8 8 9 10 10 9 9 8 9 10 10 11 10 10 11 11 12 14 16 19 21 23 25 24 24 24 25 27 27 28 28 28 29 30 30 30 31 31 31 31 31 31 31 31 30 30 29 28 28 28 28 27 27 27 27 27 26 25 24 23 22 22 23 25 26 28 29 30 31 32 33
9 8 8 7 7 8 8 8 8 8 8 8 7 7 7 6 6 7 9 9 10 10 10 10 10 10 11 11 11 11 10 11 12 12 13 14 15 16 17 17 19 20 22 22 23 24 25 26 27 28 28 28 28 29 29 29 29 30 29 29 28 28 27 27 26 26 26 26 26 26 26 26 25 24 23 22 22 23 24 25 27 27 28 29 30 31
8 7 7 7 8 8 8 8 8 7 6 6 6 6 6 5 5 6 7 9 10 11 11 11 11 11 11 10 10 10 10 10 11 10 10 10 10 10 10 11 11 12 13 14 14 15 19 22 23 24 25 25 26 27 28 28 28 28 28 28 27 27 26 26 25 25 25 25 25 26 26 26 25 24 22 22 22 23 24 25 25 26 27 28 29 30
7 7 7 8 8 8 8 8 8 7 6 6 5 6 6 6 7 8 9 10 10 11 11 11 12 11 10 10 9 9 9 9 9 9 10 10 9 9 9 9 10 10 10 10 10 11 14 16 17 18 21 22 24 25 25 26 27 28 28 27 27 26 25 25 24 24 24 25 25 25 26 25 25 24 22 22 22 23 24 24 25 25 25 26 27 28
8 8 8 9 8 8 8 8 8 8 7 6 6 6 7 8 9 9 10 11 11 10 10 11 12 12 10 8 8 8 9 9 9 9 10 10 9 9 9 10 10 10 10 10 10 11 13 13 12 12 15 18 20 22 23 25 26 27 27 27 27 26 25 25 24 24 24 24 25 25 25 25 24 24 23 22 22 23 24 24 24 24 24 25 26 26
7 8 9 9 9 9 8 8 8 8 7 7 7 7 9 9 9 9 9 10 10 10 10 11 11 11 9 8 8 8 8 8 9 9 10 10 9 8 9 10 10 10 9 10 10 10 10 10 11 12 13 17 21 24 26 27 27 28 28 27 27 26 25 25 24 24 24 25 25 25 25 25 24 23 23 22 23 23 24 24 24 24 24 24 25 25
7 8 8 9 9 9 9 8 8 8 7 7 7 8 8 9 9 9 9 9 9 9 9 9 10 10 8 8 7 7 8 8 8 9 10 10 9 8 8 9 10 10 10 10 10 9 9 10 10 11 12 17 22 25 27 27 28 28 28 28 27 26 25 25 24 24 24 25 25 25 25 25 24 23 23 22 23 23 24 24 24 23 24 24 24 25
7 8 8 9 9 9 9 8 7 7 7 7 8 8 8 8 8 8 9 9 9 9 9 8 8 8 8 8 7 6 7 8 8 9 10 10 9 8 8 9 10 10 10 10 10 10 10 10 11 12 14 20 24 26 28 28 29 28 28 27 27 26 25 25 24 24 24 24 24 24 25 24 24 23 23 23 23 23 24 24 24 23 23 24 24 24
9 9 9 9 8 8 8 7 7 7 7 7 8 9 9 9 9 9 10 9 9 9 9 9 8 8 9 9 9 8 8 7 8 9 10 10 9 8 8 9 10 11 11 11 10 10 10 11 12 16 19 23 26 27 28 28 29 28 28 27 26 25 25 24 24 24 24 24 24 24 24 24 24 23 23 23 23 23 24 24 24 23 23 23 24 24
10 9 9 8 8 8 8 8 8 8 8 8 8 9 9 10 10 10 10 9 9 8 8 8 9 9 9 10 11 10 8 8 8 9 10 11 10 9 8 9 11 11 11 10 10 10 10 10 12 15 20 22 25 26 28 28 28 28 27 26 25 25 24 24 24 24 24 24 24 24 25 24 24 24 23 23 24 24 24 24 23 23 23 23 23 23
10 10 10 8 7 7 7 7 8 9 10 10 9 9 9 9 10 9 9 9 8 8 8 9 9 10 9 11 11 11 9 9 9 10 9 10 10 9 8 9 10 11 11 10 9 9 10 10 10 11 15 20 23 25 27 28 28 28 27 26 25 25 24 24 24 24 24 24 24 25 25 25 25 24 24 24 24 24 24 23 23 23 22 22 23 23
10 11 11 11 9 8 8 9 9 10 11 10 9 8 8 8 9 9 9 8 8 9 9 10 10 10 11 11 12 11 10 9 9 9 8 9 10 9 8 8 9 10 10 9 9 9 10 10 10 11 15 20 24 26 27 28 28 28 27 26 25 25 24 24 24 24 24 24 25 25 26 25 25 25 24 24 24 24 23 23 23 22 22 22 22 22
11 11 11 10 9 9 8 8 8 8 9 8 8 8 6 7 7 8 8 8 8 9 10 10 11 11 11 11 11 11 9 9 9 8 7 9 9 9 7 7 8 9 9 9 9 9 10 10 10 11 15 21 24 26 27 28 28 28 27 26 25 24 24 24 24 24 24 25 25 26 26 25 25 25 24 24 24 23 23 23 22 22 21 21 21 22
11 10 10 9 8 7 6 7 7 7 6 7 7 7 7 7 8 8 8 8 8 9 9 10 11 11 11 11 11 10 9 8 7 7 6 7 8 8 7 7 8 9 9 9 9 9 10 10 10 10 12 18 22 25 26 27 28 28 27 26 25 24 24 24 24 24 24 24 25 26 26 25 25 24 24 23 23 23 22 22 21 21 20 20 21 21
9 9 9 8 8 9 9 10 10 10 9 9 9 9 9 10 11 10 10 9 8 8 9 10 11 11 10 10 10 9 8 8 7 6 5 6 7 8 7 7 8 9 9 9 9 9 10 10 10 10 10 14 19 23 25 27 27 27 27 26 25 24 23 23 23 23 23 24 25 25 25 25 25 24 24 23 23 22 22 21 21 20 19 19 20 21
12 12 12 13 15 17 19 20 20 19 18 15 12 10 10 10 10 10 9 8 8 8 9 10 11 11 10 9 9 8 7 7 7 7 6 6 7 8 8 7 8 9 9 9 9 9 10 10 10 10 10 12 15 20 23 25 26 27 26 25 24 23 22 22 22 22 22 23 24 24 25 25 24 24 23 23 22 22 21 20 20 19 18 18 18 19
18 18 19 20 21 22 22 22 23 23 23 20 17 14 11 10 9 9 9 8 8 8 9 10 10 11 10 9 9 8 8 7 6 6 7 7 7 8 8 7 8 8 9 9 9 9 10 11 10 10 10 10 12 15 21 23 24 25 24 23 22 21 21 21 20 21 21 22 23 24 24 24 24 24 23 23 22 21 21 20 19 18 17 16 15 15
18 18 19 19 20 20 21 20 20 20 19 19 20 18 14 10 9 9 9 8 8 8 8 9 10 10 10 9 9 8 8 7 7 6 7 6 6 7 7 7 7 8 8 8 8 9 10 10 10 10 9 9 10 12 16 19 21 22 21 21 20 20 19 19 19 20 20 21 22 22 23 23 24 23 23 23 22 21 20 19 18 17 15 12 10 9
15 16 17 18 18 18 17 17 16 16 17 18 18 17 13 9 8 8 9 8 8 8 9 9 9 10 10 10 10 9 8 7 7 7 6 6 6 6 6 6 6 6 6 6 7 7 8 8 8 8 8 10 10 10 11 14 16 16 17 18 19 19 18 18 18 19 19 20 20 21 22 22 23 23 23 22 21 21 20 19 17 15 11 8 7 7
10 11 12 13 13 13 12 11 11 12 14 16 17 16 12 8 7 7 8 7 7 8 9 9 9 9 9 10 9 9 7 6 6 6 5 5 5 5 6 6 6 6 5 5 6 6 6 6 6 7 8 9 10 9 9 10 11 11 12 14 15 16 17 17 17 18 18 18 19 20 21 21 22 22 22 22 21 20 19 18 16 12 7 6 6 6
7 7 7 7 7 7 7 7 8 9 11 13 13 12 10 8 7 7 7 7 7 7 8 9 9 9 9 8 8 7 6 6 6 6 6 5 5 5 6 7 7 7 6 5 5 6 6 5 5 6 7 8 9 9 9 10 10 9 9 10 10 11 14 15 16 16 16 17 17 18 19 20 21 22 22 21 21 20 19 18 15 11 6 5 5 6
6 6 5 5 5 5 5 6 6 7 7 8 8 8 8 7 7 7 6 6 6 6 7 8 9 9 9 8 8 8 6 6 7 8 7 6 5 6 7 7 7 7 6 5 5 6 6 5 5 5 6 7 8 9 9 10 9 9 9 8 8 9 12 13 13 13 13 14 15 17 18 19 20 20 21 20 20 19 19 19 16 12 8 6 6 6
6 5 5 5 5 5 5 5 6 6 6 5 5 6 6 7 7 7 7 6 6 6 7 8 8 9 9 9 9 9 8 8 8 9 9 7 6 5 6 7 7 7 6 6 6 6 6 6 6 6 7 7 7 8 9 10 10 9 9 8 8 8 9 10 10 10 10 11 12 13 15 16 17 18 19 19 19 19 19 19 17 15 11 8 6 6
6 6 5 5 5 5 6 6 6 6 6 5 5 5 5 6 6 7 7 7 6 6 6 7 8 8 9 9 9 9 9 9 9 10 10 7 6 6 7 7 8 8 7 6 6 7 6 7 7 7 7 7 7 7 8 9 10 10 9 8 8 7 7 7 7 7 7 8 8 9 10 11 13 14 15 16 16 17 17 17 18 17 15 11 8 7
6 6 6 6 6 6 6 6 6 6 6 5 5 5 5 5 6 6 7 7 6 6 6 7 7 8 8 9 9 9 9 9 10 10 10 8 7 6 7 7 7 7 7 7 7 6 6 8 9 9 7 7 7 7 7 8 9 9 9 8 8 7 6 6 6 6 7 7 7 7 7 8 8 9 11 12 13 14 15 16 17 17 17 14 12 9
6 6 6 6 6 6 6 6 6 6 6 5 5 5 5 5 6 6 6 6 7 7 8 8 8 8 8 9 9 10 10 10 10 11 11 9 8 7 7 7 7 8 8 8 8 7 7 8 9 10 10 9 7 7 7 7 8 9 9 8 8 7 7 6 6 6 7 7 7 7 7 7 7 8 9 11 13 14 14 15 15 16 16 16 15 13
6 6 6 6 6 6 6 6 6 6 5 5 5 5 5 6 6 6 7 7 7 8 8 9 9 9 10 10 10 10 11 10 11 11 12 10 9 8 8 7 8 8 8 8 8 8 8 9 9 9 9 8 7 6 6 7 7 8 9 9 8 7 7 7 7 7 7 8 8 8 7 7 7 8 8 11 13 13 13 13 13 14 15 15 15 15
7 6 6 6 6 5 6 6 6 5 5 5 5 5 6 6 6 7 7 7 7 8 8 9 9 10 13 13 13 12 12 13 13 14 14 12 10 9 9 9 9 8 8 8 8 9 9 9 9 9 8 8 8 8 8 7 7 8 8 9 9 8 7 7 7 7 8 8 8 8 8 8 7 7 8 8 9 9 9 9 9 10 12 12 14 15
7 6 6 6 6 5 5 5 5 5 5 5 5 6 6 7 7 7 7 7 7 8 9 9 9 9 11 12 13 14 14 14 15 15 14 12 11 10 9 9 9 9 8 8 8 8 9 9 9 9 8 8 8 8 8 7 8 8 8 8 8 8 7 7 7 7 7 8 9 9 8 8 7 7 7 7 7 6 7 6 6 6 7 6 8 11
7 6 6 6 5 5 5 6 6 6 6 6 6 7 6 7 6 6 6 7 7 8 9 9 9 9 9 10 11 12 12 11 11 12 11 10 9 9 9 9 9 9 8 8 8 8 9 9 9 10 9 8 8 8 7 7 8 8 8 7 7 6 7 7 7 7 7 8 8 9 8 8 7 7 7 7 6 6 6 5 5 5 4 4 4 5
7 6 5 5 5 5 6 6 6 6 6 6 6 5 5 5 5 6 6 6 7 7 7 8 8 8 8 8 9 10 10 10 11 10 9 9 10 9 9 9 9 9 9 8 8 8 9 9 10 10 10 9 10 10 10 9 9 10 10 8 7 7 7 8 8 7 7 8 8 9 9 8 8 7 7 7 7 6 6 6 6 6 5 3 3 3
7 6 5 4 4 4 5 6 6 7 7 6 6 5 5 5 5 5 6 6 6 6 6 6 7 8 8 8 8 8 8 9 9 9 10 10 10 10 9 9 8 8 8 9 9 9 9 9 10 10 10 9 9 9 9 10 10 10 9 8 8 8 8 8 7 7 7 7 7 7 9 8 7 7 7 6 6 6 6 6 7 8 7 5 3 3
6 5 4 4 5 5 6 7 7 7 6 5 5 5 5 4 5 6 7 7 7 7 7 7 7 8 8 8 8 7 6 7 8 9 9 9 9 9 9 9 9 9 8 8 9 9 9 10 10 10 9 9 9 10 11 10 10 9 9 8 8 7 5 4 5 5 6 6 6 6 7 7 7 6 6 6 6 6 6 7 8 9 8 7 5 4
5 4 4 4 5 5 6 6 6 5 5 5 5 5 5 5 6 6 7 6 7 7 7 7 7 7 8 9 8 8 7 6 7 7 8 9 9 8 9 9 9 9 9 9 8 8 9 9 9 9 9 9 9 10 10 10 9 9 8 8 8 8 6 5 5 6 6 6 6 6 7 7 7 7 6 6 5 5 5 6 6 6 7 7 6 5
5 4 4 5 5 5 5 5 5 5 6 6 6 6 5 5 6 6 5 6 7 7 7 7 7 7 7 8 8 8 7 6 6 6 6 8 10 10 9 8 8 8 9 9 9 9 8 9 9 8 8 8 9 10 10 10 10 9 9 9 9 8 8 7 7 7 6 6 6 6 7 7 7 7 7 6 6 5 5 5 6 6 6 6 6 6
5 4 5 5 5 5 6 6 6 6 6 6 6 6 5 5 5 5 6 6 7 7 7 6 6 7 7 8 8 8 8 7 7 6 6 6 6 6 6 7 7 7 7 8 8 9 9 9 9 9 8 8 9 10 10 10 10 9 9 9 8 8 8 7 7 7 7 6 6 6 6 6 7 7 6 6 6 6 5 5 6 6 6 6 6 6
5 5 5 5 5 5 6 6 6 6 6 7 6 6 5 5 4 4 5 6 7 7 7 6 6 7 8 8 8 8 9 9 8 7 7 6 5 5 5 5 6 7 7 8 8 9 9 10 10 9 9 9 9 10 10 9 9 9 9 8 8 7 7 7 6 6 6 6 6 5 5 6 6 6 6 6 6 6 5 5 6 6 6 6 6 6
5 5 5 5 5 6 6 6 6 6 7 7 6 6 6 5 5 5 5 5 6 6 7 6 6 7 8 8 9 9 9 9 9 8 7 7 6 6 5 5 5 6 7 8 9 10 10 10 11 11 10 10 10 10 10 9 9 9 9 8 8 8 8 7 6 6 6 6 6 6 5 5 5 6 6 6 6 6 5 5 5 6 6 6 6 6
5 4 5 5 5 6 6 6 6 7 7 7 7 6 6 6 7 7 6 5 5 5 6 7 7 8 8 8 9 9 10 9 9 8 7 7 6 6 6 6 6 6 6 7 8 8 9 10 11 12 11 11 11 11 11 10 9 9 8 8 8 8 7 7 6 6 6 6 6 6 5 5 5 6 6 6 7 7 6 6 5 5 6 6 6 7
4 4 4 5 5 6 6 7 7 7 7 7 7 7 6 6 5 5 5 5 6 6 6 7 8 8 9 9 9 9 9 9 8 8 7 6 6 6 6 6 6 7 7 6 6 6 6 7 8 10 12 13 12 12 11 10 10 9 8 8 8 7 7 7 6 6 5 6 6 6 5 5 5 5 6 6 7 8 7 7 6 5 5 5 6 7
4 4 4 5 5 6 6 7 7 7 7 7 7 7 6 5 5 4 5 5 6 6 7 7 7 8 9 9 9 9 9 9 9 8 8 6 6 6 6 6 6 7 7 7 6 6 5 5 5 6 8 11 13 13 10 10 9 9 8 8 7 7 7 6 6 6 6 5 5 5 5 5 5 5 5 6 6 7 8 7 6 6 5 5 6 6
Wind_Direction
275 278 279 279 279 278 277 277 278 279 279 278 278 278 278 277 276 275 275 275 275 274 272 272 272 273 275 277 278 279 280 280 280 281 281 281 281 282 282 282 283 283 282 282 281 281 280 279 278 277 276 276 276 277 278 278 279 279 279 280 280 281 281 282 282 283 284 284 284 285 285 286 286 286 287 288 288 289 291 296 300 305 308 309 310 311
276 278 278 278 278 278 278 277 277 278 279 280 280 279 279 279 278 276 275 274 273 273 273 273 274 274 275 276 277 278 279 279 280 280 280 280 280 280 281 281 281 281 281 280 280 279 278 277 277 276 277 278 279 280 281 282 282 282 281 281 281 281 281 281 282 282 283 283 283 284 284 284 284 284 285 286 288 291 295 301 305 307 308 309 310 310
279 279 277 278 277 278 279 280 279 278 279 280 279 279 278 278 278 277 276 275 273 272 272 273 274 275 275 276 277 277 277 277 278 278 278 278 278 279 279 279 279 279 279 278 278 278 277 277 277 278 279 281 283 284 285 284 284 283 282 281 281 281 281 280 281 281 281 282 282 283 283 283 282 283 285 287 291 295 300 304 305 306 307 308 308 309
279 279 280 280 278 277 277 280 280 279 278 278 278 278 278 278 278 277 277 277 276 275 273 273 273 274 274 274 274 274 275 275 276 276 277 277 278 278 278 279 278 278 278 278 277 277 278 278 280 281 283 284 285 285 285 284 283 282 281 281 280 280 280 280 280 281 281 281 282 282 282 282 282 284 286 290 294 298 301 303 303 304 305 306 307 308
276 277 279 279 278 277 277 278 279 280 279 278 278 279 279 277 277 276 277 276 275 274 273 272 271 271 271 271 272 273 274 275 275 276 277 277 278 278 279 279 279 278 278 278 278 278 279 280 281 283 284 284 284 284 283 282 282 281 280 280 280 280 280 281 281 281 282 281 281 281 280 281 282 284 287 291 294 297 299 300 301 301 303 304 306 307
274 274 276 277 278 279 281 279 279 280 281 279 278 277 276 274 274 274 274 273 272 272 271 270 270 270 270 272 273 274 274 275 276 277 277 278 278 279 279 279 279 279 279 278 278 278 279 280 281 282 282 282 282 282 282 281 281 280 280 280 280 281 281 281 282 282 282 281 281 280 280 281 282 284 287 289 292 294 297 298 298 299 301 302 304 305
273 273 275 276 277 278 279 278 277 278 279 280 279 278 275 274 274 273 273 272 272 273 273 273 272 272 272 273 274 274 275 276 276 277 277 277 278 278 279 279 279 279 279 278 278 278 278 279 279 280 280 280 281 281 281 281 281 280 280 280 281 281 281 282 282 282 282 281 281 280 280 281 282 284 285 287 290 292 295 296 297 298 299 301 303 304
273 273 273 274 275 275 274 274 275 277 278 280 280 280 279 278 276 276 276 275 276 276 277 276 274 272 271 272 273 273 274 275 276 276 276 276 276 277 278 278 278 279 278 278 277 277 277 278 278 279 280 281 282 282 282 282 281 281 280 280 281 281 281 282 282 282 281 281 281 281 281 282 282 283 284 286 288 291 293 295 296 297 298 300 302 304
271 274 273 272 274 276 277 275 275 276 277 277 278 280 282 282 281 279 279 278 277 275 275 274 273 272 270 271 273 274 275 274 274 274 275 275 276 278 279 279 279 278 277 277 277 277 277 278 279 280 281 282 283 283 282 282 281 280 280 280 281 281 281 282 282 282 282 282 282 282 282 282 282 283 284 286 288 290 292 294 295 296 297 300 302 304
266 270 272 271 270 272 276 277 278 277 276 275 275 276 280 283 284 283 280 277 275 273 272 273 275 277 278 277 278 279 280 278 277 277 279 281 283 283 283 283 281 280 278 277 277 277 277 279 280 282 283 283 283 283 282 281 281 280 280 280 281 281 282 282 282 282 283 283 283 283 283 283 283 283 284 286 288 289 291 292 293 294 296 299 302 305
263 265 267 268 268 268 269 274 278 279 278 276 274 272 271 273 277 279 280 278 278 278 279 279 281 284 288 288 287 286 285 283 281 281 282 283 284 285 285 284 283 281 280 279 278 278 279 280 282 283 283 283 283 282 282 281 281 280 280 281 281 282 282 283 283 283 284 284 284 283 283 283 283 284 284 286 287 288 289 290 291 293 295 299 303 306
261 262 264 267 270 272 272 274 277 279 280 280 278 273 266 260 262 269 276 281 286 290 291 289 287 287 289 292 292 291 288 285 284 283 283 283 283 283 282 282 281 281 280 279 279 279 280 281 282 282 282 282 281 281 281 281 281 281 281 282 282 283 283 284 284 284 284 284 284 284 284 284 284 284 285 285 285 286 286 288 289 292 295 300 304 307
259 264 269 272 274 276 278 281 283 284 283 279 276 275 274 270 271 275 280 286 290 294 296 294 291 289 288 290 291 291 289 286 285 284 283 281 279 278 278 278 278 277 278 277 277 278 279 280 280 280 280 280 280 281 281 281 281 281 282 282 283 284 284 284 284 284 284 284 284 284 284 284 284 285 285 284 284 284 285 287 289 292 296 301 304 306
267 272 274 275 276 278 281 285 286 286 283 279 278 280 285 290 293 293 292 291 292 294 295 294 292 291 290 289 288 287 286 285 284 282 279 277 275 275 276 277 277 276 276 275 274 274 275 276 277 277 277 278 279 280 280 281 281 281 282 282 283 284 284 285 285 284 284 284 283 283 283 284 284 285 285 285 285 285 286 288 290 293 296 300 303 304
274 277 277 277 279 282 285 286 286 284 283 285 288 292 295 296 297 296 295 294 294 295 295 292 290 289 288 288 288 287 286 285 284 282 279 277 275 275 277 277 277 276 274 273 272 273 273 273 274 275 275 276 276 277 278 279 280 280 281 282 283 284 285 285 285 284 284 283 283 283 283 284 285 285 286 286 286 287 288 289 291 294 296 299 301 301
275 276 278 281 283 284 284 284 285 285 288 291 295 298 300 299 298 297 295 295 295 296 294 293 292 291 288 287 288 290 290 288 285 283 282 279 277 276 276 277 276 275 273 272 272 273 274 273 273 274 274 275 276 277 278 278 279 280 281 282 283 284 285 285 285 285 284 283 283 283 283 284 284 285 286 286 287 287 288 290 292 294 296 298 299 299
277 278 280 282 282 282 281 280 282 285 292 295 298 298 299 299 299 298 295 294 293 293 291 292 294 295 295 295 294 295 297 293 288 284 282 281 279 278 277 278 278 277 275 273 274 275 275 274 274 273 273 275 276 277 278 278 279 280 281 282 283 284 285 286 285 284 284 283 282 282 282 283 284 284 285 286 286 287 288 290 292 295 297 297 298 297
278 279 280 279 277 278 279 282 286 291 296 298 298 298 296 296 295 294 292 291 291 290 289 289 289 291 296 299 301 304 307 300 294 289 285 282 281 280 279 278 277 277 276 274 273 273 273 274 273 273 274 276 277 278 279 279 280 280 281 282 284 285 285 285 285 284 283 282 281 281 282 282 283 284 284 284 285 285 286 288 290 293 296 298 298 297
278 276 274 272 272 276 282 287 293 297 300 300 301 301 298 295 292 290 288 287 287 287 288 288 288 289 291 293 298 305 312 305 299 293 288 285 283 281 280 278 277 276 276 275 274 275 275 275 275 275 277 278 279 279 280 280 281 281 282 283 284 285 285 284 283 283 282 281 281 281 281 282 282 283 283 283 283 284 284 286 288 290 294 297 298 297
273 270 266 270 276 283 287 289 293 296 298 299 299 297 293 292 290 289 287 286 285 285 286 287 289 290 292 293 297 302 309 305 298 292 287 286 285 284 282 280 278 277 276 276 276 277 277 277 277 278 279 279 280 281 281 281 282 282 283 284 284 285 284 284 283 282 282 281 281 281 281 281 282 282 282 282 282 282 283 284 285 288 290 294 296 295
269 268 268 276 283 288 288 289 291 293 294 295 293 290 286 287 287 287 288 289 289 289 290 289 291 293 296 296 298 300 304 299 293 288 285 284 283 281 281 279 278 277 277 277 277 278 278 278 278 279 279 281 281 282 282 282 283 283 283 284 284 284 284 283 283 282 282 282 281 281 280 280 280 280 280 279 279 280 280 281 283 284 286 290 292 292
268 271 275 279 280 281 282 284 286 288 290 290 287 283 282 285 287 290 293 294 295 295 296 295 295 296 297 295 294 294 295 287 282 280 281 280 279 279 280 279 278 277 277 278 279 280 280 280 280 280 281 282 283 283 283 284 284 284 284 284 284 284 284 283 283 282 282 281 280 279 279 278 278 277 277 276 276 277 277 278 279 280 282 285 288 289
264 269 274 275 274 273 275 278 281 284 286 282 278 277 280 285 289 293 298 299 299 298 298 297 296 294 292 290 289 288 286 279 275 274 276 277 279 281 283 282 281 279 278 280 282 283 282 282 282 282 283 284 284 285 285 285 285 285 285 285 285 284 284 283 282 282 281 280 278 277 276 276 275 274 274 273 273 274 274 275 276 277 279 282 284 286
257 260 265 265 264 263 266 271 275 278 277 274 273 274 279 284 288 291 294 296 297 297 297 296 294 292 290 290 290 289 287 283 280 277 275 278 281 285 288 287 284 282 280 282 285 286 286 284 283 284 285 285 285 286 286 286 286 286 286 286 286 285 284 283 282 281 279 278 276 275 274 273 272 272 271 271 271 271 272 273 274 276 277 280 283 285
248 251 255 259 262 266 272 277 281 283 284 284 285 287 289 291 292 293 293 294 295 295 295 295 295 294 295 296 295 294 292 291 288 284 281 282 285 286 288 288 286 284 284 285 286 286 286 285 285 284 284 285 286 287 287 287 287 287 287 287 287 286 285 283 282 280 278 276 275 274 273 272 272 271 270 270 270 270 270 271 273 274 276 279 282 284
250 255 262 271 277 281 285 288 290 291 292 293 294 295 296 296 296 295 294 294 294 295 296 295 295 295 297 297 296 294 294 293 290 287 285 286 287 287 287 287 286 285 286 287 287 287 286 285 285 285 285 286 287 287 287 287 287 287 288 288 287 286 285 283 281 279 277 275 274 273 273 273 272 271 270 270 269 269 269 270 271 273 275 278 281 283
262 268 274 279 283 285 287 288 289 291 292 293 294 295 296 298 298 295 292 293 294 296 296 295 295 296 297 295 293 292 294 293 289 286 283 283 284 284 285 286 286 285 286 286 286 286 285 285 286 286 286 286 286 286 285 286 287 287 288 289 289 288 286 284 282 279 277 275 274 273 273 273 272 271 270 269 268 268 268 268 269 271 273 275 278 281
271 275 279 280 281 282 284 285 288 290 292 294 295 296 297 297 296 292 289 292 294 294 292 292 294 295 297 295 294 293 293 289 285 282 280 278 277 278 282 284 284 285 286 286 286 285 284 284 285 286 285 284 283 283 284 287 288 290 291 292 293 292 290 287 283 280 277 275 274 273 273 273 272 271 270 269 268 268 267 267 268 269 270 270 272 275
272 274 275 277 279 281 285 288 291 292 292 292 293 294 296 293 289 286 286 290 291 290 287 288 289 292 293 294 294 292 290 286 284 283 282 278 275 277 283 284 285 286 288 290 289 286 282 282 283 284 285 286 286 287 289 293 295 296 299 298 297 296 293 290 285 281 278 275 274 273 273 272 272 272 271 270 270 269 269 268 268 267 265 262 262 265
268 270 272 275 279 284 288 289 289 288 287 288 289 291 292 288 283 281 283 286 285 284 283 285 287 290 293 295 295 293 289 287 290 294 296 288 283 283 289 289 289 291 295 296 295 291 286 283 284 286 289 292 294 296 298 300 301 301 302 300 298 296 294 291 287 284 280 277 275 273 272 272 272 271 271 271 271 271 270 270 269 267 259 252 250 254
268 270 272 276 280 283 283 281 279 279 280 282 285 286 287 283 279 277 277 278 277 276 279 282 285 288 291 294 295 293 291 293 300 306 307 296 289 289 293 292 292 291 293 293 294 294 294 291 289 289 292 295 296 296 296 296 296 295 295 295 295 293 292 290 289 286 283 280 277 275 273 272 271 270 270 270 270 270 270 270 269 266 258 248 244 246
270 271 273 276 278 277 276 275 274 273 273 275 277 279 280 279 278 276 274 272 271 272 274 278 281 284 286 286 285 286 289 294 299 302 300 293 287 286 289 288 288 287 286 281 281 285 291 293 294 295 294 293 292 292 291 291 291 291 292 292 291 290 290 290 289 287 285 281 278 276 274 272 270 269 268 268 267 267 267 266 265 263 258 251 245 244
269 269 271 274 274 274 273 272 271 269 268 268 271 274 277 279 279 279 277 274 273 273 275 278 281 283 284 282 280 280 283 288 293 295 295 290 286 285 286 286 286 286 285 279 275 275 278 285 290 294 292 290 289 290 291 291 292 292 292 292 292 291 290 290 290 288 286 284 282 279 277 274 272 270 268 267 265 264 263 262 260 258 256 252 248 246
266 268 270 272 272 272 271 271 270 270 270 271 273 276 278 279 280 280 279 278 276 274 273 274 277 280 282 282 281 281 282 285 290 293 294 290 287 286 288 287 288 288 289 284 280 277 275 280 285 290 292 290 289 290 292 294 294 294 294 293 293 293 294 294 293 291 290 289 287 284 282 279 277 275 270 268 265 262 260 258 255 253 251 249 248 247
265 267 268 269 270 271 270 271 272 273 274 276 277 279 281 281 280 280 279 279 277 275 271 269 269 272 275 278 281 282 283 286 290 293 293 289 286 287 288 286 287 289 290 287 285 284 282 282 284 286 290 291 291 290 291 292 293 294 293 294 295 297 299 300 299 298 296 293 290 288 287 286 284 281 276 272 268 265 260 257 253 250 248 247 246 246
265 266 266 267 268 270 272 273 275 277 279 280 279 279 280 281 281 281 280 280 279 278 276 272 268 266 266 268 272 276 280 284 287 288 287 284 283 283 283 282 284 286 287 287 286 286 285 286 286 286 287 288 289 290 290 291 293 294 295 297 299 301 303 305 306 304 300 296 292 289 287 287 286 285 283 280 277 273 268 261 255 250 247 246 245 245
263 264 263 264 267 270 274 276 278 280 281 281 281 280 281 281 282 282 282 280 278 278 278 276 272 268 264 263 264 267 272 278 280 281 280 278 277 275 275 276 277 278 279 281 283 284 285 285 286 285 284 283 285 289 292 294 295 295 296 298 300 301 304 307 307 304 300 294 291 288 287 286 285 284 285 284 284 281 276 269 262 254 248 245 244 243
261 260 260 262 266 270 274 278 280 281 281 282 282 282 283 283 282 281 281 279 277 276 277 276 273 270 265 264 263 263 265 269 271 272 272 271 269 268 268 271 271 270 269 272 275 279 281 282 283 284 283 282 282 285 289 292 294 294 294 296 298 299 300 302 301 299 296 293 292 291 290 288 286 284 283 283 284 283 280 276 268 259 249 245 243 242
258 259 260 262 266 271 275 277 279 281 282 282 282 282 283 283 282 281 279 279 277 275 274 274 274 272 268 265 264 263 264 265 266 266 266 265 264 264 266 269 270 269 267 266 267 269 271 274 276 279 282 284 284 284 284 285 287 289 292 294 294 293 294 296 297 297 296 297 297 296 294 292 289 286 283 281 280 280 280 280 274 264 251 242 238 238
256 258 260 264 267 271 273 276 278 281 282 282 282 282 282 284 284 282 280 280 279 279 279 278 277 276 273 271 269 267 267 265 265 264 264 262 261 262 265 269 272 273 271 266 264 263 264 267 270 273 276 279 282 283 283 281 281 283 287 289 290 291 293 296 296 296 296 294 293 292 290 288 286 284 283 282 280 279 280 281 280 273 259 239 230 231
255 258 261 265 269 271 273 276 278 280 279 279 280 280 280 282 284 286 286 285 285 285 286 285 284 282 279 276 274 272 271 269 267 266 264 260 258 259 262 266 270 272 273 270 267 264 263 266 269 271 273 275 278 280 279 278 278 279 280 280 282 286 290 290 289 288 286 283 282 281 281 281 281 280 280 281 281 280 280 281 282 281 276 252 230 220
254 257 260 263 266 269 272 274 276 276 276 275 275 275 276 279 283 286 289 291 291 291 291 292 292 291 289 285 281 276 272 269 267 265 263 259 256 255 257 261 266 270 272 271 269 267 264 265 267 269 271 274 277 278 277 277 276 276 275 275 279 282 283 280 279 278 276 275 276 277 279 280 279 277 276 276 277 278 279 279 280 280 281 272 254 233
252 255 258 262 265 269 271 272 273 273 273 271 271 271 273 276 280 284 287 289 291 293 294 294 294 294 294 292 290 286 280 272 267 265 263 258 255 253 255 257 261 266 270 271 271 270 268 265 265 266 268 271 273 274 276 277 277 275 272 272 274 276 275 273 273 274 274 276 279 282 284 285 284 282 278 275 274 276 278 278 278 277 277 277 272 259
252 254 257 261 264 267 269 268 268 269 270 270 271 272 274 275 277 281 284 286 288 290 293 293 294 293 293 293 293 293 292 285 277 271 266 263 259 256 257 258 260 264 267 270 274 275 275 270 267 265 266 267 268 270 272 274 275 274 271 269 267 266 265 269 272 274 275 276 279 282 286 290 292 292 289 283 279 276 275 275 274 273 272 273 272 268
249 252 255 260 264 266 267 268 269 270 271 271 272 273 274 274 276 278 281 283 286 288 290 293 295 295 293 293 294 296 297 296 293 287 278 273 271 269 265 262 263 265 267 269 272 275 278 277 275 273 270 267 265 266 268 271 273 274 272 270 267 265 263 265 267 268 268 270 272 276 281 287 292 293 292 288 285 281 277 276 274 272 270 268 266 265
245 248 253 259 265 269 271 273 273 272 271 270 270 270 271 271 272 274 277 281 285 287 289 291 292 293 292 294 296 298 299 299 299 297 295 288 280 273 265 261 262 264 266 267 269 271 273 275 277 278 276 270 266 264 264 267 271 273 274 272 271 269 267 266 265 264 264 265 267 270 275 281 284 286 286 286 284 282 278 277 274 273 271 268 265 263
241 245 251 257 263 268 271 273 273 272 270 269 269 269 270 270 271 273 276 280 284 287 290 290 289 288 288 291 294 296 298 299 300 301 301 298 292 283 273 267 265 265 266 268 268 269 269 272 274 276 277 275 272 269 266 267 268 270 273 274 273 272 270 269 267 266 266 265 266 268 272 276 279 280 281 281 280 276 272 271 270 271 271 269 267 264
239 243 249 256 263 267 271 273 272 271 270 270 271 270 270 270 271 274 277 280 283 286 289 289 288 287 287 288 290 292 295 297 298 300 301 302 300 296 290 285 280 276 272 272 271 270 269 268 268 269 270 272 272 273 272 270 269 269 272 273 273 273 272 272 271 271 271 270 270 270 271 272 275 278 281 281 279 275 270 267 266 266 268 268 266 265
237 241 246 253 259 264 269 271 272 271 271 272 272 272 271 271 273 276 279 282 283 284 285 286 286 287 287 288 290 291 294 295 296 298 300 301 302 302 300 298 295 292 287 281 276 272 269 265 261 257 256 258 262 267 270 269 269 268 270 271 271 272 273 273 273 273 273 273 273 271 269 269 271 275 281 282 281 279 276 272 267 264 264 264 264 263
235 237 241 249 255 261 265 269 270 271 272 273 274 274 273 272 272 274 278 280 281 281 281 282 284 287 288 289 291 293 295 296 297 298 299 301 303 303 303 302 302 300 297 292 287 282 277 270 261 253 248 248 250 255 262 264 266 266 266 266 267 269 271 272 272 271 269 271 272 271 268 267 268 271 274 278 281 281 280 276 271 265 261 262 262 262
233 235 239 246 251 257 261 265 267 269 271 272 274 274 275 273 273 274 277 279 280 280 280 281 283 285 287 289 291 293 294 296 297 299 299 301 303 302 302 302 302 303 302 300 299 297 293 291 284 273 259 252 249 248 253 257 261 263 263 262 262 264 267 268 269 267 265 265 265 266 265 264 264 265 266 271 276 278 278 276 272 268 264 262 261 261